This demonstration page uses our WeatherBlox Daily Observations layout. Learn more.

Left ArrowRight Arrow

Hourly Observations for April 15, 2021

Temp ( °F °C ) Dew Point ( °F °C ) Humidity (%) Winds ( mph kmh ) Pressure ( in mb ) Visibility ( mi km ) Precip ( " mm )
12:53 am 00:53 Clear 44 6.7 39 3.9 83 83 N N/A 29.99 1016 10 16 N/A
1:53 am 01:53 Mostly Clear 44 6.7 39 3.9 83 83 W 3 6 29.99 1016 10 16 N/A
2:53 am 02:53 Clear 45 7.2 33 0.6 63 63 NW 7 11 29.97 1015 10 16 N/A
3:53 am 03:53 Clear 41 5 32 undefined 70 70 NW 7 11 29.97 1015 10 16 N/A
4:53 am 04:53 Clear 37 2.8 34 1.1 89 89 N N/A 29.98 1015 10 16 N/A
5:53 am 05:53 Cloudy 39 3.9 35 1.7 86 86 W 3 6 29.98 1015 10 16 N/A
6:53 am 06:53 Cloudy 42 5.6 34 1.1 73 73 NW 6 9 29.99 1016 10 16 N/A
7:53 am 07:53 Partly Cloudy 41 5 33 0.6 73 73 WNW 9 15 30.01 1016 10 16 N/A
8:53 am 08:53 Cloudy 43 6.1 33 0.6 68 68 WNW 12 19 30.01 1016 10 16 N/A
9:53 am 09:53 Cloudy 43 6.1 31 -0.6 63 63 NNW 10 17 30.01 1016 10 16 N/A
10:53 am 10:53 Cloudy 44 6.7 29 -1.7 55 55 WNW 13 20 30.02 1017 10 16 N/A
11:53 am 11:53 Mostly Cloudy 46 7.8 31 -0.6 56 56 WNW 12 19 30.01 1016 10 16 N/A
12:53 pm 12:53 Mostly Cloudy 51 10.6 32 undefined 48 48 W 12 19 30.00 1016 10 16 N/A
1:53 pm 13:53 Cloudy 51 10.6 33 0.6 50 50 NW 15 24 29.99 1016 10 16 N/A
2:53 pm 14:53 Mostly Cloudy 53 11.7 32 undefined 45 45 WNW 16 26 29.98 1015 10 16 N/A
3:53 pm 15:53 Mostly Cloudy 53 11.7 32 undefined 45 45 WNW 13 20 29.97 1015 10 16 N/A
4:53 pm 16:53 Cloudy 52 11.1 33 0.6 49 49 WNW 14 22 29.98 1015 10 16 N/A
5:53 pm 17:53 Cloudy 51 10.6 34 1.1 52 52 NW 15 24 29.99 1016 10 16 N/A
6:53 pm 18:53 Cloudy 50 10 34 1.1 54 54 NW 13 20 30.00 1016 10 16 N/A
7:53 pm 19:53 Cloudy 50 10 34 1.1 54 54 WNW 12 19 30.00 1016 10 16 N/A
8:53 pm 20:53 Cloudy 49 9.4 34 1.1 56 56 NW 12 19 30.01 1016 10 16 N/A
9:53 pm 21:53 Mostly Cloudy 47 8.3 34 1.1 61 61 NW 9 15 30.02 1017 10 16 N/A
10:53 pm 22:53 Clear 41 5 34 1.1 76 76 N N/A 30.03 1017 10 16 N/A
11:53 pm 23:53 Clear 37 2.8 34 1.1 89 89 N N/A 30.02 1017 10 16 N/A

Powered by AerisWeather